Estación Meteorológica Peña el Pijo (Robertgarden) [ 07/15/20 07:16:02 CEST ]

Fecha Hora Presion(HPa) Temp (°C) Humedad % Rocio (°C) Viento ( m/s) Direccion Lluvia 1Hora(mm) Lluvia 24H(mm) LLuvia Total(mm)
2020-Mar-18 01:09:16 1013.200 - - - - N     39.88
2020-Mar-18 02:10:39 1013.400 - - - - N     39.88
2020-Mar-18 03:10:55 1013.100 - - - - N     39.88
2020-Mar-18 04:10:52 1012.900 - - - - N     39.88
2020-Mar-18 05:08:50 1013.300 - - - - N     39.88
2020-Mar-18 06:08:53 1013.600 - - - - N     39.88
2020-Mar-18 07:09:19 1013.500 - - - - N     39.88
2020-Mar-18 08:09:28 1013.600 - - - - N     39.88
2020-Mar-18 09:09:11 1013.800 - - - - N     39.88
2020-Mar-18 10:09:39 1013.900 - - - - N     39.88
2020-Mar-18 11:09:34 1013.800 - - - - N     39.88
2020-Mar-18 12:09:11 1013.500 - - - - N     39.88
2020-Mar-18 13:09:27 1012.800 - - - - N     39.88
2020-Mar-18 14:09:15 1011.900 - - - - N     39.88
2020-Mar-18 15:08:49 1011.800 - - - - N     39.88
2020-Mar-18 16:09:00 1011.700 - - - - N     39.88
2020-Mar-18 17:09:19 1011.400 - - - - N     39.88
2020-Mar-18 18:08:54 1011.600 - - - - N     39.88
2020-Mar-18 19:09:06 1011.600 - - - - N     39.88
2020-Mar-18 20:09:16 1011.900 - - - - N     39.88
2020-Mar-18 21:09:25 1012.100 - - - - N     39.88
2020-Mar-18 22:09:37 1012.300 - - - - N     39.88
2020-Mar-18 23:08:59 1012.500 - - - - N     39.88

Temperatura Máxima:    Temperatura Mínima:
Presión Máxima:1013.900 Hpa    Presión Mínima:1011.400 Hpa


Volver